Regional Weather Roundup
Issued by NWS Sterling, VA

Home | Current Version | Previous Version | Graphics & Text | Print | Product List | Glossary On
Versions: 1 2 3 4 5 6 7 8 9 10 11 12 13 14 15 16 17 18 19 20 21 22 23 24 25 26 27 28 29 30 31 32 33 34 35 36 37 38 39 40 41 42 43 44 45 46 47 48 49 50
000
ASUS41 KLWX 221311
RWRLWX

REGIONAL WEATHER ROUNDUP
NATIONAL WEATHER SERVICE BALTIMORE MD/WASHINGTON DC
900 AM EDT THU JUN 22 2017

Note: "FAIR" indicates few or no clouds below 12,000 feet
with no significant weather and/or obstructions to visibility.
 TC=TEMPERATURE CELSIUS

 * =Non NWS site. Station does not report precipitation (e.g. rain,
    snow, etc.), thunder, or fog.

DCZ001-MDZ009-015-VAZ040>042-051-053>054-221400-
WASHINGTON METRO

CITY           SKY/WX    TMP DP  RH WIND       PRES   REMARKS
WASHINGTON NAT CLOUDY    80  72  76 S3        30.02R
DULLES         PTSUNNY   79  66  64 CALM      30.02R
ANDREWS AFB    MOSUNNY   81  70  70 CALM      30.01S
FT BELVOIR     MOSUNNY   81  70  69 CALM      30.01S
QUANTICO       PTSUNNY   79  72  79 S3        30.02S
COLLEGE PARK*  SUNNY     79  67  66 CALM      30.01S
LEESBURG*      SUNNY     79  68  69 CALM      30.03F
MANASSAS*      SUNNY     79  70  73 CALM      30.02S

$$

MDZ006>007-011-014-221400-
BALTIMORE METRO

CITY           SKY/WX    TMP DP  RH WIND       PRES   REMARKS
BWI AIRPORT    PTSUNNY   80  66  62 CALM      30.01R
MD SCIENCE CTR   N/A     82  66  58 MISG      30.01S
MARTIN STATE   MOSUNNY   79  73  83 CALM      30.02S
ANNAPOLIS      MOSUNNY   78  75  90 SE6       30.01R
FORT MEADE*    SUNNY     77  70  78 CALM      30.03F

$$

MDZ012-015-019>023-221400-
MARYLAND EASTERN SHORE

CITY           SKY/WX    TMP DP  RH WIND       PRES   REMARKS
OCEAN CITY     SUNNY     81  73  76 NW8       30.03R
SALISBURY      SUNNY     80  73  79 W5        30.02R
BAY BRIDGE AP* SUNNY     81  72  74 SE3       30.01S
CAMBRIDGE*     SUNNY     81  73  78 NW5       30.02R
EASTON*        PTSUNNY   82  72  69 CALM      30.05S

$$

MDZ017>025-221400-
SOUTHERN MARYLAND

CITY           SKY/WX    TMP DP  RH WIND       PRES   REMARKS
PATUXENT RIVER PTSUNNY   79  71  76 W5        30.02R
ST INIGOES     SUNNY     78  72  81 SW5       30.02R
LEONARDTOWN*   SUNNY     79  70  73 CALM      30.03F

$$

MDZ003>005-221400-
NORTH CENTRAL MARYLAND

CITY           SKY/WX    TMP DP  RH WIND       PRES   REMARKS
FREDERICK*     CLOUDY    75  72  88 CALM      30.05S
HAGERSTOWN APT PTSUNNY   76  67  73 VRB3      30.03S
WESTMINSTER*   CLOUDY    77  66  69 CALM      30.03F

$$

MDZ501>502-221400-
WESTERN MARYLAND

CITY           SKY/WX    TMP DP  RH WIND       PRES   REMARKS
OAKLAND*       NOT AVBL
CUMBERLAND*    CLOUDY    68  68 100 SW6       30.07F

$$

VAZ025>031-221400-
SHENANDOAH VALLEY

CITY           SKY/WX    TMP DP  RH WIND       PRES   REMARKS
WINCHESTER*    CLOUDY    79  63  57 SW6       30.03S
FRONT ROYAL*   MOSUNNY   77  66  69 S3        30.03S
LURAY*         CLOUDY    73  68  83 CALM      30.05S
NEW MARKET*    CLOUDY    76  64  64 CALM      30.05S
STAUNTON*      MOSUNNY   75  65  71 S7        30.10R
WAYNESBORO*    CLOUDY    76  67  72 SW3       30.11R

$$

WVZ021-048>050-054>055-221400-
EASTERN WEST VIRGINIA PANHANDLE

CITY           SKY/WX    TMP DP  RH WIND       PRES   REMARKS
MARTINSBURG    CLOUDY    71  66  84 CALM      30.03R
PETERSBURG*    CLOUDY    80  66  63 SW7       30.06S

$$

VAZ036>039-050-221400-
CENTRAL FOOTHILLS

CITY           SKY/WX    TMP DP  RH WIND       PRES   REMARKS
CHARLOTTESVILL CLOUDY    81  68  64 S9        30.04R
CULPEPER*      MOSUNNY   79  71  77 CALM      30.04S
ORANGE*        CLOUDY    77  70  78 CALM      30.03S
GORDONSVILLE*  MOSUNNY   79  70  75 SW6       30.04R
WARRENTON*     MOSUNNY   81  68  64 S3        30.03R

$$

VAZ055>057-221400-
NORTH AND CENTRAL PIEDMONT

CITY           SKY/WX    TMP DP  RH WIND       PRES   REMARKS
FREDERICKSBRG* MOSUNNY   82  70  68 CALM      30.01S
STAFFORD*      MOSUNNY   80  71  74 CALM      30.05F

$$

NCZ024-NYZ072-PAZ021-071-VAZ022-071-221400-
OTHER REGIONAL OBSERVATIONS

CITY           SKY/WX    TMP DP  RH WIND       PRES   REMARKS
NEW YORK CITY  SUNNY     75  56  51 CALM      30.06S
PHILADELPHIA   PTSUNNY   78  66  66 E6        30.02S
PITTSBURGH     PTSUNNY   73  68  84 SW7       30.02S
ROANOKE        CLOUDY    74  63  68 N5        30.13R
RICHMOND       CLOUDY    78  70  76 SW7       30.04R
RALEIGH        CLOUDY    75  72  90 SW9       30.10R

$$

ANZ530>537-221400-
MARINE OBSERVATIONS

STATION/POSITION TIME  TEMP    WIND        PRES
                       AIR SEA DIR/SP/G
                 (UTC) (F)     (DEG/KT/KT) (MB)
THOMAS PT LIGHT  1300   76 77   CALM  /  1   N/A
BALT KEY BRIDGE  1248   77     150/  4/  5 1015.9S
COVE POINT       1248   80      CALM  /  2 1017.2R
LEWISETTA        1248   77 77  270/  5/  5 1016.8R
SOLOMONS ISLAND  1242   82 76  250/  2/  3   N/A
PINEY POINT      1248          310/  3/  4   N/A

$$




USA.gov is the U.S. government's official web portal to all federal, state and local government web resources and services.